START_TIME,STEP,MOV.,M29,t_acc.,H22,t_acc.,H26,t_acc.,H30,t_acc.
1979-08-02 03:00:30.740 ,1,0,0.,24.0,0.,24.0,0.,24.0,0.,24.0
1979-08-02 03:00:54.740 ,2,1,0.,24.0,0.,24.0,0.,24.0,0.,24.0
1979-08-02 03:01:18.740 ,2,0,0.,24.0,0.,24.0,0.,24.0,0.,24.0
1979-08-02 03:01:42.740 ,3,1,0.,24.0,0.,24.0,0.,24.0,0.,24.0
1979-08-02 03:02:06.740 ,3,0,0.,24.0,0.,24.0,0.,24.0,0.,24.0
1979-08-02 03:02:30.740 ,4,1,0.,24.0,0.,24.0,0.,24.0,0.,24.0
1979-08-02 03:02:54.740 ,4,0,0.,24.0,0.,24.0,0.,24.0,0.,24.0
1979-08-02 03:03:18.740 ,5,1,0.,24.0,0.,24.0,0.,24.0,0.,24.0
1979-08-02 03:03:42.740 ,5,0,0.,24.0,0.,24.0,0.,24.0,0.,24.0
1979-08-02 03:04:06.740 ,6,1,0.,24.0,0.,24.0,0.,24.0,0.,24.0
1979-08-02 03:04:30.740 ,6,0,0.,24.0,0.,24.0,0.,24.0,0.,24.0
1979-08-02 03:04:54.740 ,7,1,0.,24.0,0.,24.0,0.,24.0,0.,24.0
1979-08-02 03:05:18.740 ,7,0,0.,24.0,0.,24.0,0.,24.0,0.,24.0
1979-08-02 03:05:42.740 ,7,1,0.,24.0,0.,24.0,0.,24.0,0.,24.0
1979-08-02 03:06:06.740 ,7,0,0.,24.0,0.,24.0,0.,24.0,0.,24.0
1979-08-02 03:06:30.740 ,6,1,0.,24.0,0.,24.0,0.,24.0,0.,24.0
1979-08-02 03:06:54.740 ,6,0,1.,24.0,0.,24.0,0.,24.0,0.,24.0
1979-08-02 03:07:18.740 ,0,0,,0,,0,,0,,0
1979-08-02 03:07:42.740 ,0,0,,0,,0,,0,,0
1979-08-02 03:07:42.740 ,5,0,0.,24.0,0.,24.0,0.,24.0,0.,24.0
1979-08-02 03:08:06.740 ,4,1,0.,24.0,0.,24.0,0.,24.0,0.,24.0
1979-08-02 03:08:30.740 ,4,0,0.,24.0,0.,24.0,0.,24.0,0.,24.0
1979-08-02 03:08:54.740 ,3,1,0.,24.0,0.,24.0,0.,24.0,0.,24.0
1979-08-02 03:09:18.740 ,3,0,0.,24.0,0.,24.0,0.,24.0,0.,24.0
1979-08-02 03:09:42.740 ,2,1,0.,24.0,0.,24.0,0.,24.0,0.,24.0
1979-08-02 03:10:06.740 ,2,0,0.,24.0,0.,24.0,0.,24.0,0.,24.0
1979-08-02 03:10:30.740 ,1,1,0.,24.0,0.,24.0,0.,24.0,0.,24.0
1979-08-02 03:10:54.740 ,1,0,0.,24.0,0.,24.0,0.,24.0,0.,24.0
1979-08-02 03:11:18.740 ,0,1,0.,24.0,0.,24.0,0.,24.0,0.,24.0
1979-08-02 03:11:42.740 ,0,0,0.,24.0,0.,24.0,0.,24.0,0.,24.0
1979-08-02 03:12:06.740 ,0,1,0.,24.0,0.,24.0,0.,24.0,0.,24.0
1979-08-02 03:12:30.740 ,0,0,0.,24.0,0.,24.0,0.,24.0,0.,24.0
1979-08-02 03:12:54.740 ,1,1,0.,24.0,0.,24.0,0.,24.0,0.,24.0
1979-08-02 03:13:18.740 ,1,0,0.,24.0,0.,24.0,0.,24.0,0.,24.0
1979-08-02 03:13:42.740 ,2,1,0.,24.0,0.,24.0,0.,24.0,0.,24.0
1979-08-02 03:14:06.740 ,2,0,0.,24.0,0.,24.0,0.,24.0,0.,24.0
1979-08-02 03:14:30.740 ,3,1,0.,24.0,0.,24.0,0.,24.0,0.,24.0
1979-08-02 03:14:54.740 ,3,0,0.,24.0,0.,24.0,0.,24.0,0.,24.0
1979-08-02 03:15:18.740 ,4,1,0.,24.0,0.,24.0,0.,24.0,0.,24.0
1979-08-02 03:15:42.740 ,4,0,0.,24.0,0.,24.0,0.,24.0,0.,24.0
1979-08-02 03:16:06.740 ,5,1,0.,24.0,0.,24.0,0.,24.0,0.,24.0
1979-08-02 03:16:30.740 ,5,0,0.,24.0,0.,24.0,0.,24.0,0.,24.0
1979-08-02 03:16:54.740 ,6,1,0.,24.0,0.,24.0,0.,24.0,0.,24.0
1979-08-02 03:17:18.740 ,6,0,0.,24.0,0.,24.0,0.,24.0,0.,24.0
1979-08-02 03:17:42.740 ,7,1,0.,24.0,0.,24.0,0.,24.0,0.,24.0
1979-08-02 03:18:06.740 ,7,0,0.,24.0,0.,24.0,0.,24.0,0.,24.0
1979-08-02 03:18:30.740 ,7,1,0.,24.0,0.,24.0,0.,24.0,0.,24.0
1979-08-02 03:18:54.740 ,7,0,0.,24.0,0.,24.0,0.,24.0,0.,24.0
1979-08-02 03:19:18.740 ,6,1,0.,24.0,0.,24.0,0.,24.0,0.,24.0
1979-08-02 03:19:42.740 ,6,0,0.,24.0,0.,24.0,0.,24.0,0.,24.0
1979-08-02 03:20:06.740 ,5,1,0.,24.0,0.,24.0,0.,24.0,0.,24.0
1979-08-02 03:20:30.740 ,5,0,0.,24.0,0.,24.0,0.,24.0,0.,24.0
1979-08-02 03:20:54.740 ,4,1,0.,24.0,0.,24.0,0.,24.0,0.,24.0
1979-08-02 03:21:18.740 ,4,0,0.,24.0,0.,24.0,0.,24.0,0.,24.0
1979-08-02 03:21:42.740 ,3,1,0.,24.0,0.,24.0,0.,24.0,0.,24.0
1979-08-02 03:22:06.740 ,3,0,0.,24.0,0.,24.0,0.,24.0,0.,24.0
1979-08-02 03:22:30.740 ,2,1,0.,24.0,0.,24.0,0.,24.0,0.,24.0
1979-08-02 03:22:54.740 ,2,0,0.,24.0,0.,24.0,0.,24.0,0.,24.0
1979-08-02 03:23:18.740 ,1,1,0.,24.0,0.,24.0,0.,24.0,0.,24.0
1979-08-02 03:23:42.740 ,1,0,0.,24.0,0.,24.0,0.,24.0,0.,24.0
1979-08-02 03:24:06.740 ,0,1,0.,24.0,0.,24.0,0.,24.0,0.,24.0
1979-08-02 03:24:30.740 ,0,0,0.,24.0,0.,24.0,0.,24.0,0.,24.0
1979-08-02 03:24:54.740 ,0,1,0.,24.0,0.,24.0,0.,24.0,0.,24.0
1979-08-02 03:25:18.740 ,0,0,0.,24.0,0.,24.0,0.,24.0,0.,24.0
1979-08-02 03:25:42.740 ,1,1,0.,24.0,0.,24.0,0.,24.0,0.,24.0
1979-08-02 03:26:06.740 ,1,0,0.,24.0,0.,24.0,0.,24.0,0.,24.0
1979-08-02 03:26:30.740 ,2,1,0.,24.0,0.,24.0,0.,24.0,0.,24.0
1979-08-02 03:26:54.740 ,2,0,0.,24.0,0.,24.0,0.,24.0,0.,24.0
1979-08-02 03:27:18.740 ,3,1,0.,24.0,0.,24.0,0.,24.0,0.,24.0
1979-08-02 03:27:42.740 ,3,0,0.,24.0,0.,24.0,0.,24.0,0.,24.0
1979-08-02 03:28:06.740 ,4,1,0.,24.0,0.,24.0,0.,24.0,0.,24.0
1979-08-02 03:28:30.740 ,4,0,0.,24.0,0.,24.0,0.,24.0,0.,24.0
1979-08-02 03:28:54.740 ,5,1,0.,24.0,0.,24.0,0.,24.0,0.,24.0
1979-08-02 03:29:18.740 ,5,0,0.,24.0,0.,24.0,0.,24.0,0.,24.0
1979-08-02 03:29:42.740 ,6,1,0.,24.0,0.,24.0,0.,24.0,0.,24.0
1979-08-02 03:30:06.740 ,6,0,0.,24.0,0.,24.0,0.,24.0,0.,24.0
1979-08-02 03:30:30.740 ,7,0,0.,24.0,0.,24.0,0.,24.0,0.,24.0
1979-08-02 03:30:54.740 ,7,0,0.,24.0,0.,24.0,0.,24.0,0.,24.0
1979-08-02 03:31:18.740 ,5,1,0.,24.0,0.,24.0,0.,24.0,0.,24.0
1979-08-02 03:31:42.740 ,1,1,0.,24.0,0.,24.0,0.,24.0,0.,24.0
1979-08-02 03:32:06.740 ,2,1,0.,24.0,0.,24.0,0.,24.0,0.,24.0
1979-08-02 03:32:30.740 ,6,1,1.,24.0,0.,24.0,0.,24.0,0.,24.0
1979-08-02 03:32:54.740 ,5,1,0.,24.0,0.,24.0,0.,24.0,0.,24.0
1979-08-02 03:33:18.740 ,1,1,0.,24.0,0.,24.0,0.,24.0,0.,24.0
1979-08-02 03:33:42.740 ,2,1,0.,24.0,0.,24.0,0.,24.0,0.,24.0
1979-08-02 03:34:06.740 ,6,1,0.,24.0,0.,24.0,0.,24.0,0.,24.0
1979-08-02 03:34:30.740 ,5,1,0.,24.0,0.,24.0,0.,24.0,0.,24.0
1979-08-02 03:34:54.740 ,1,1,0.,24.0,0.,24.0,0.,24.0,0.,24.0
1979-08-02 03:35:18.740 ,2,1,0.,24.0,0.,24.0,0.,24.0,0.,24.0
1979-08-02 03:35:42.740 ,6,1,1.,24.0,0.,24.0,0.,24.0,0.,24.0
1979-08-02 03:36:06.740 ,5,1,0.,24.0,0.,24.0,0.,24.0,0.,24.0
1979-08-02 03:36:30.740 ,1,1,0.,24.0,0.,24.0,0.,24.0,0.,24.0
1979-08-02 03:36:54.740 ,2,1,0.,24.0,0.,24.0,0.,24.0,0.,24.0
1979-08-02 03:37:18.740 ,6,1,0.,24.0,0.,24.0,0.,24.0,0.,24.0
1979-08-02 03:37:42.740 ,5,1,0.,24.0,0.,24.0,0.,24.0,0.,24.0
1979-08-02 03:38:06.740 ,1,1,0.,24.0,0.,24.0,0.,24.0,0.,24.0
1979-08-02 03:38:30.740 ,2,1,0.,24.0,0.,24.0,0.,24.0,0.,24.0
1979-08-02 03:38:54.740 ,6,1,0.,24.0,0.,24.0,0.,24.0,0.,24.0
1979-08-02 03:39:18.740 ,5,1,0.,24.0,0.,24.0,0.,24.0,0.,24.0
1979-08-02 03:39:42.740 ,1,1,0.,24.0,0.,24.0,0.,24.0,0.,24.0
1979-08-02 03:40:06.740 ,2,1,0.,24.0,0.,24.0,0.,24.0,0.,24.0
1979-08-02 03:40:30.740 ,6,1,0.,24.0,0.,24.0,0.,24.0,0.,24.0
1979-08-02 03:40:54.740 ,5,1,0.,24.0,0.,24.0,0.,24.0,0.,24.0
1979-08-02 03:41:18.740 ,1,1,0.,24.0,0.,24.0,0.,24.0,0.,24.0
1979-08-02 03:41:42.740 ,0,0,0.,24.0,0.,24.0,0.,24.0,0.,24.0
1979-08-02 03:42:06.740 ,0,0,0.,24.0,0.,24.0,0.,24.0,0.,24.0
1979-08-02 03:42:30.740 ,5,1,0.,24.0,0.,24.0,0.,24.0,0.,24.0
1979-08-02 03:42:54.740 ,5,0,0.,24.0,0.,24.0,0.,24.0,0.,24.0
1979-08-02 03:43:18.740 ,4,1,0.,24.0,0.,24.0,0.,24.0,0.,24.0
1979-08-02 03:43:42.740 ,4,0,0.,24.0,0.,24.0,0.,24.0,0.,24.0
1979-08-02 03:44:06.740 ,3,1,0.,24.0,0.,24.0,0.,24.0,0.,24.0
1979-08-02 03:44:30.740 ,3,0,0.,24.0,0.,24.0,0.,24.0,0.,24.0
1979-08-02 03:44:54.740 ,2,1,0.,24.0,0.,24.0,0.,24.0,0.,24.0
1979-08-02 03:45:18.740 ,2,0,0.,24.0,0.,24.0,0.,24.0,0.,24.0
1979-08-02 03:45:42.740 ,1,1,0.,24.0,0.,24.0,0.,24.0,0.,24.0
1979-08-02 03:46:06.740 ,1,0,0.,24.0,0.,24.0,0.,24.0,0.,24.0
1979-08-02 03:46:30.740 ,0,1,0.,24.0,0.,24.0,0.,24.0,0.,24.0
1979-08-02 03:46:54.740 ,0,0,0.,24.0,0.,24.0,0.,24.0,0.,24.0
1979-08-02 03:47:18.740 ,0,1,0.,24.0,0.,24.0,0.,24.0,0.,24.0
1979-08-02 03:47:42.740 ,0,0,0.,24.0,0.,24.0,0.,24.0,0.,24.0
1979-08-02 03:48:06.740 ,1,1,0.,24.0,0.,24.0,0.,24.0,0.,24.0
1979-08-02 03:48:30.740 ,1,0,0.,24.0,0.,24.0,0.,24.0,0.,24.0
1979-08-02 03:48:54.740 ,2,1,0.,24.0,0.,24.0,0.,24.0,0.,24.0
1979-08-02 03:49:18.740 ,2,0,0.,24.0,0.,24.0,0.,24.0,0.,24.0
1979-08-02 03:49:42.740 ,3,1,0.,24.0,0.,24.0,0.,24.0,0.,24.0
1979-08-02 03:50:06.740 ,3,0,0.,24.0,0.,24.0,0.,24.0,0.,24.0
1979-08-02 03:50:30.740 ,4,1,0.,24.0,0.,24.0,0.,24.0,0.,24.0
1979-08-02 03:50:54.740 ,4,0,0.,24.0,0.,24.0,0.,24.0,0.,24.0
1979-08-02 03:51:18.740 ,5,1,0.,24.0,0.,24.0,0.,24.0,0.,24.0
1979-08-02 03:51:42.740 ,5,0,0.,24.0,0.,24.0,0.,24.0,0.,24.0
1979-08-02 03:52:06.740 ,6,1,0.,24.0,0.,24.0,0.,24.0,0.,24.0
1979-08-02 03:52:30.740 ,6,0,0.,24.0,0.,24.0,0.,24.0,0.,24.0
1979-08-02 03:52:54.740 ,7,1,0.,24.0,0.,24.0,0.,24.0,0.,24.0
1979-08-02 03:53:18.740 ,7,0,0.,24.0,0.,24.0,0.,24.0,0.,24.0
1979-08-02 03:53:42.740 ,7,1,0.,24.0,0.,24.0,0.,24.0,0.,24.0
1979-08-02 03:54:06.740 ,7,0,0.,24.0,0.,24.0,0.,24.0,0.,24.0
1979-08-02 03:54:30.740 ,6,1,0.,24.0,0.,24.0,0.,24.0,0.,24.0
1979-08-02 03:54:54.740 ,6,0,0.,24.0,0.,24.0,0.,24.0,0.,24.0
1979-08-02 03:55:18.740 ,5,1,0.,24.0,0.,24.0,0.,24.0,0.,24.0
1979-08-02 03:55:42.740 ,5,0,0.,24.0,0.,24.0,0.,24.0,0.,24.0
1979-08-02 03:56:06.740 ,4,1,1.,24.0,0.,24.0,0.,24.0,0.,24.0
1979-08-02 03:56:30.740 ,4,0,0.,24.0,0.,24.0,0.,24.0,0.,24.0
1979-08-02 03:56:54.740 ,3,1,0.,24.0,0.,24.0,0.,24.0,0.,24.0
1979-08-02 03:57:18.740 ,3,0,0.,24.0,0.,24.0,0.,24.0,0.,24.0
1979-08-02 03:57:42.740 ,2,1,0.,24.0,0.,24.0,0.,24.0,0.,24.0
1979-08-02 03:58:06.740 ,2,0,0.,24.0,0.,24.0,0.,24.0,0.,24.0
1979-08-02 03:58:30.740 ,1,1,0.,24.0,0.,24.0,0.,24.0,0.,24.0
1979-08-02 03:58:54.740 ,1,0,0.,24.0,0.,24.0,0.,24.0,0.,24.0
1979-08-02 03:59:18.740 ,0,1,0.,24.0,0.,24.0,0.,24.0,0.,24.0
1979-08-02 03:59:42.740 ,0,0,0.,24.0,0.,24.0,0.,24.0,0.,24.0
1979-08-02 04:00:06.740 ,0,1,0.,24.0,0.,24.0,0.,24.0,0.,24.0
1979-08-02 04:00:30.740 ,0,0,0.,24.0,0.,24.0,0.,24.0,0.,24.0
1979-08-02 04:00:54.740 ,1,1,0.,24.0,0.,24.0,0.,24.0,0.,24.0
1979-08-02 04:01:18.740 ,1,0,1.,24.0,0.,24.0,0.,24.0,0.,24.0
1979-08-02 04:01:42.740 ,2,1,0.,24.0,0.,24.0,0.,24.0,0.,24.0
1979-08-02 04:02:06.740 ,2,0,0.,24.0,0.,24.0,0.,24.0,0.,24.0
1979-08-02 04:02:30.740 ,3,1,0.,24.0,0.,24.0,0.,24.0,0.,24.0
1979-08-02 04:02:54.740 ,3,0,0.,24.0,0.,24.0,0.,24.0,0.,24.0
1979-08-02 04:03:18.740 ,4,1,0.,24.0,0.,24.0,0.,24.0,0.,24.0
1979-08-02 04:03:42.740 ,4,0,0.,24.0,0.,24.0,0.,24.0,0.,24.0
1979-08-02 04:04:06.740 ,5,1,0.,24.0,0.,24.0,0.,24.0,0.,24.0
1979-08-02 04:04:30.740 ,5,0,0.,24.0,0.,24.0,0.,24.0,0.,24.0
1979-08-02 04:04:54.740 ,6,1,0.,24.0,0.,24.0,0.,24.0,0.,24.0
1979-08-02 04:05:18.740 ,6,0,0.,24.0,0.,24.0,0.,24.0,0.,24.0
1979-08-02 04:05:42.740 ,7,1,0.,24.0,0.,24.0,0.,24.0,0.,24.0
1979-08-02 04:06:06.740 ,7,0,0.,24.0,0.,24.0,0.,24.0,0.,24.0
1979-08-02 04:06:30.740 ,7,1,0.,24.0,0.,24.0,0.,24.0,1.,24.0
1979-08-02 04:06:54.740 ,7,0,0.,24.0,0.,24.0,0.,24.0,0.,24.0
1979-08-02 04:07:18.740 ,6,1,0.,24.0,0.,24.0,0.,24.0,0.,24.0
1979-08-02 04:07:42.740 ,6,0,1.,24.0,0.,24.0,0.,24.0,0.,24.0
1979-08-02 04:08:06.740 ,5,1,1.,24.0,0.,24.0,0.,24.0,0.,24.0
1979-08-02 04:08:30.740 ,5,0,0.,24.0,0.,24.0,0.,24.0,0.,24.0
1979-08-02 04:08:54.740 ,4,1,0.,24.0,0.,24.0,0.,24.0,0.,24.0
1979-08-02 04:09:18.740 ,4,0,0.,24.0,0.,24.0,0.,24.0,0.,24.0
1979-08-02 04:09:42.740 ,3,1,0.,24.0,0.,24.0,0.,24.0,0.,24.0
1979-08-02 04:10:06.740 ,0,0,0.,24.0,0.,24.0,0.,24.0,0.,24.0
1979-08-02 04:10:30.740 ,2,1,0.,24.0,0.,24.0,0.,24.0,0.,24.0
1979-08-02 04:10:54.740 ,2,0,0.,24.0,0.,24.0,0.,24.0,0.,24.0
1979-08-02 04:11:18.740 ,1,1,0.,24.0,0.,24.0,0.,24.0,0.,24.0
1979-08-02 04:11:42.740 ,1,0,0.,24.0,0.,24.0,0.,24.0,0.,24.0
1979-08-02 04:12:06.740 ,0,1,0.,24.0,0.,24.0,0.,24.0,0.,24.0
1979-08-02 04:12:30.740 ,0,0,0.,24.0,0.,24.0,0.,24.0,0.,24.0
1979-08-02 04:12:54.740 ,0,1,0.,24.0,0.,24.0,0.,24.0,0.,24.0
1979-08-02 04:13:18.740 ,0,0,0.,24.0,0.,24.0,0.,24.0,0.,24.0
1979-08-02 04:13:42.740 ,1,1,0.,24.0,0.,24.0,0.,24.0,0.,24.0
1979-08-02 04:14:06.740 ,1,0,0.,24.0,0.,24.0,0.,24.0,0.,24.0
1979-08-02 04:14:30.740 ,2,1,0.,24.0,0.,24.0,0.,24.0,0.,24.0
1979-08-02 04:14:54.740 ,2,0,0.,24.0,0.,24.0,0.,24.0,0.,24.0
1979-08-02 04:15:18.740 ,3,1,0.,24.0,0.,24.0,0.,24.0,0.,24.0
1979-08-02 04:15:42.740 ,3,0,0.,24.0,0.,24.0,0.,24.0,0.,24.0
1979-08-02 04:16:06.740 ,4,1,0.,24.0,0.,24.0,0.,24.0,0.,24.0
1979-08-02 04:16:30.740 ,4,0,0.,24.0,0.,24.0,0.,24.0,0.,24.0
1979-08-02 04:16:54.740 ,5,1,0.,24.0,0.,24.0,0.,24.0,0.,24.0
1979-08-02 04:17:18.740 ,5,0,0.,24.0,0.,24.0,0.,24.0,0.,24.0
1979-08-02 04:17:42.740 ,6,1,0.,24.0,0.,24.0,0.,24.0,0.,24.0
1979-08-02 04:18:06.740 ,6,0,0.,24.0,0.,24.0,0.,24.0,0.,24.0
1979-08-02 04:18:30.740 ,7,0,0.,24.0,0.,24.0,0.,24.0,0.,24.0
1979-08-02 04:18:54.740 ,7,0,1.,24.0,0.,24.0,0.,24.0,0.,24.0
1979-08-02 04:19:18.740 ,5,1,0.,24.0,0.,24.0,0.,24.0,0.,24.0
1979-08-02 04:19:42.740 ,1,1,0.,24.0,0.,24.0,0.,24.0,0.,24.0
1979-08-02 04:20:06.740 ,2,1,0.,24.0,0.,24.0,0.,24.0,0.,24.0
1979-08-02 04:20:30.740 ,6,1,0.,24.0,0.,24.0,0.,24.0,0.,24.0
1979-08-02 04:20:54.740 ,5,1,0.,24.0,0.,24.0,0.,24.0,0.,24.0
1979-08-02 04:21:18.740 ,1,1,0.,24.0,0.,24.0,0.,24.0,0.,24.0
1979-08-02 04:21:42.740 ,2,1,0.,24.0,0.,24.0,0.,24.0,0.,24.0
1979-08-02 04:22:06.740 ,6,1,0.,24.0,0.,24.0,0.,24.0,0.,24.0
1979-08-02 04:22:30.740 ,5,1,0.,24.0,0.,24.0,0.,24.0,0.,24.0
1979-08-02 04:22:54.740 ,1,1,0.,24.0,0.,24.0,0.,24.0,0.,24.0
1979-08-02 04:23:18.740 ,2,1,0.,24.0,0.,24.0,0.,24.0,0.,24.0
1979-08-02 04:23:42.740 ,6,1,0.,24.0,0.,24.0,0.,24.0,0.,24.0
1979-08-02 04:24:06.740 ,5,1,0.,24.0,0.,24.0,0.,24.0,0.,24.0
1979-08-02 04:24:30.740 ,1,1,1.,24.0,0.,24.0,0.,24.0,0.,24.0
1979-08-02 04:24:54.740 ,2,1,0.,24.0,0.,24.0,0.,24.0,0.,24.0
1979-08-02 04:25:18.740 ,6,1,0.,24.0,0.,24.0,0.,24.0,0.,24.0
1979-08-02 04:25:42.740 ,0,0,0.,24.0,0.,24.0,0.,24.0,0.,24.0
1979-08-02 04:26:06.740 ,0,0,,0,,0,,0,,0
1979-08-02 04:26:50.540 ,0,0,,0,,0,,0,,0
1979-08-02 04:26:54.740 ,0,0,0.,24.0,0.,24.0,0.,24.0,0.,24.0
1979-08-02 04:27:35.540 ,0,0,,0,,0,,0,,0
1979-08-02 04:27:42.740 ,1,1,0.,24.0,0.,24.0,0.,24.0,0.,24.0
1979-08-02 04:28:06.740 ,2,1,0.,24.0,0.,24.0,0.,24.0,0.,24.0
1979-08-02 04:28:30.740 ,6,1,0.,24.0,0.,24.0,0.,24.0,0.,24.0
1979-08-02 04:28:54.740 ,5,1,0.,24.0,0.,24.0,0.,24.0,0.,24.0
1979-08-02 04:29:18.740 ,1,1,0.,24.0,0.,24.0,0.,24.0,0.,24.0
1979-08-02 04:29:42.740 ,0,0,0.,24.0,0.,24.0,0.,24.0,0.,24.0
1979-08-02 04:30:06.740 ,0,0,0.,24.0,0.,24.0,0.,24.0,0.,24.0
1979-08-02 04:30:30.740 ,5,1,0.,24.0,0.,24.0,0.,24.0,0.,24.0
1979-08-02 04:30:54.740 ,5,0,0.,24.0,0.,24.0,0.,24.0,0.,24.0
1979-08-02 04:31:18.740 ,4,1,0.,24.0,0.,24.0,0.,24.0,0.,24.0
1979-08-02 04:31:42.740 ,4,0,0.,24.0,0.,24.0,0.,24.0,0.,24.0
1979-08-02 04:32:06.740 ,3,1,0.,24.0,0.,24.0,0.,24.0,0.,24.0
1979-08-02 04:32:30.740 ,3,0,0.,24.0,0.,24.0,0.,24.0,0.,24.0
1979-08-02 04:32:54.740 ,2,1,0.,24.0,0.,24.0,0.,24.0,0.,24.0
1979-08-02 04:33:18.740 ,2,0,0.,24.0,0.,24.0,0.,24.0,0.,24.0
1979-08-02 04:33:42.740 ,1,1,0.,24.0,0.,24.0,0.,24.0,0.,24.0
1979-08-02 04:34:06.740 ,1,0,0.,24.0,0.,24.0,0.,24.0,0.,24.0
1979-08-02 04:34:30.740 ,0,1,0.,24.0,0.,24.0,0.,24.0,0.,24.0
1979-08-02 04:34:54.740 ,0,0,0.,24.0,0.,24.0,0.,24.0,0.,24.0
1979-08-02 04:35:18.740 ,0,1,0.,24.0,0.,24.0,0.,24.0,0.,24.0
1979-08-02 04:35:42.740 ,0,0,0.,24.0,0.,24.0,0.,24.0,0.,24.0
1979-08-02 04:36:06.740 ,1,1,0.,24.0,0.,24.0,0.,24.0,0.,24.0
1979-08-02 04:36:30.740 ,1,0,0.,24.0,0.,24.0,0.,24.0,0.,24.0
1979-08-02 04:36:54.740 ,2,1,0.,24.0,0.,24.0,0.,24.0,0.,24.0
1979-08-02 04:37:18.740 ,2,0,0.,24.0,0.,24.0,0.,24.0,0.,24.0
1979-08-02 04:37:42.740 ,3,1,0.,24.0,0.,24.0,0.,24.0,0.,24.0
1979-08-02 04:38:06.740 ,3,0,0.,24.0,0.,24.0,0.,24.0,0.,24.0
1979-08-02 04:38:30.740 ,4,1,0.,24.0,0.,24.0,0.,24.0,0.,24.0
1979-08-02 04:38:54.740 ,4,0,0.,24.0,0.,24.0,0.,24.0,0.,24.0
1979-08-02 04:39:18.740 ,5,1,1.,24.0,0.,24.0,0.,24.0,0.,24.0
1979-08-02 04:39:42.740 ,5,0,0.,24.0,0.,24.0,0.,24.0,0.,24.0
1979-08-02 04:40:06.740 ,6,1,0.,24.0,0.,24.0,0.,24.0,0.,24.0
1979-08-02 04:40:30.740 ,6,0,0.,24.0,0.,24.0,0.,24.0,0.,24.0
1979-08-02 04:40:54.740 ,7,1,0.,24.0,0.,24.0,0.,24.0,0.,24.0
1979-08-02 04:41:18.740 ,7,0,0.,24.0,0.,24.0,0.,24.0,0.,24.0
1979-08-02 04:41:42.740 ,7,1,0.,24.0,0.,24.0,0.,24.0,0.,24.0
1979-08-02 04:42:06.740 ,7,0,0.,24.0,0.,24.0,0.,24.0,0.,24.0
1979-08-02 04:42:30.740 ,6,1,0.,24.0,0.,24.0,0.,24.0,0.,24.0
1979-08-02 04:42:54.740 ,6,0,0.,24.0,0.,24.0,0.,24.0,0.,24.0
1979-08-02 04:43:18.740 ,5,1,0.,24.0,0.,24.0,0.,24.0,0.,24.0
1979-08-02 04:43:42.740 ,5,0,0.,24.0,0.,24.0,0.,24.0,0.,24.0
1979-08-02 04:44:06.740 ,4,1,0.,24.0,0.,24.0,0.,24.0,0.,24.0
1979-08-02 04:44:30.740 ,4,0,0.,24.0,0.,24.0,0.,24.0,0.,24.0
1979-08-02 04:44:54.740 ,3,1,0.,24.0,0.,24.0,0.,24.0,0.,24.0
1979-08-02 04:45:18.740 ,3,0,0.,24.0,0.,24.0,0.,24.0,0.,24.0
1979-08-02 04:45:42.740 ,2,1,0.,24.0,0.,24.0,0.,24.0,0.,24.0
1979-08-02 04:46:06.740 ,2,0,0.,24.0,0.,24.0,0.,24.0,0.,24.0
1979-08-02 04:46:30.740 ,1,1,0.,24.0,0.,24.0,0.,24.0,0.,24.0
1979-08-02 05:20:54.740 ,2,1,0.,24.0,0.,24.0,0.,24.0,0.,24.0
1979-08-02 05:21:18.740 ,2,0,0.,24.0,0.,24.0,0.,24.0,0.,24.0
1979-08-02 05:21:42.740 ,1,1,0.,24.0,0.,24.0,0.,24.0,0.,24.0
1979-08-02 05:22:06.740 ,1,0,0.,24.0,0.,24.0,0.,24.0,0.,24.0
1979-08-02 05:22:30.740 ,0,0,,0,,0,,0,,0
1979-08-02 05:22:54.740 ,0,0,0.,24.0,0.,24.0,0.,24.0,0.,24.0
1979-08-02 05:23:18.740 ,0,1,0.,24.0,0.,24.0,0.,24.0,0.,24.0
1979-08-02 05:23:42.740 ,0,0,0.,24.0,0.,24.0,0.,24.0,0.,24.0
1979-08-02 05:24:06.740 ,1,1,0.,24.0,0.,24.0,0.,24.0,0.,24.0
1979-08-02 05:24:30.740 ,1,0,0.,24.0,0.,24.0,0.,24.0,0.,24.0
1979-08-02 05:24:54.740 ,2,1,0.,24.0,0.,24.0,0.,24.0,0.,24.0
1979-08-02 05:25:18.740 ,2,0,0.,24.0,0.,24.0,0.,24.0,0.,24.0
1979-08-02 05:25:42.740 ,3,1,0.,24.0,0.,24.0,0.,24.0,0.,24.0
1979-08-02 05:26:06.740 ,3,0,0.,24.0,0.,24.0,0.,24.0,0.,24.0
1979-08-02 05:26:30.740 ,4,1,0.,24.0,0.,24.0,0.,24.0,0.,24.0
1979-08-02 05:26:54.740 ,4,0,0.,24.0,0.,24.0,0.,24.0,0.,24.0
1979-08-02 05:27:18.740 ,5,1,0.,24.0,0.,24.0,0.,24.0,0.,24.0
1979-08-02 05:27:42.740 ,5,0,0.,24.0,0.,24.0,0.,24.0,0.,24.0
1979-08-02 05:28:06.740 ,6,1,0.,24.0,0.,24.0,0.,24.0,0.,24.0
1979-08-02 05:28:30.740 ,6,0,0.,24.0,0.,24.0,0.,24.0,0.,24.0
1979-08-02 05:28:54.740 ,7,1,0.,24.0,0.,24.0,0.,24.0,0.,24.0
1979-08-02 05:29:18.740 ,7,0,0.,24.0,0.,24.0,0.,24.0,0.,24.0
1979-08-02 05:29:42.740 ,7,1,0.,24.0,0.,24.0,0.,24.0,0.,24.0
1979-08-02 05:30:06.740 ,7,0,0.,24.0,0.,24.0,0.,24.0,0.,24.0
1979-08-02 05:30:30.740 ,6,1,0.,24.0,0.,24.0,0.,24.0,0.,24.0
1979-08-02 05:30:54.740 ,6,0,0.,24.0,0.,24.0,0.,24.0,0.,24.0
1979-08-02 05:31:18.740 ,5,1,0.,24.0,0.,24.0,0.,24.0,0.,24.0
1979-08-02 05:31:42.740 ,5,0,0.,24.0,0.,24.0,0.,24.0,0.,24.0
1979-08-02 05:32:06.740 ,4,1,0.,24.0,0.,24.0,0.,24.0,0.,24.0
1979-08-02 05:32:30.740 ,4,0,0.,24.0,0.,24.0,0.,24.0,0.,24.0
1979-08-02 05:32:54.740 ,3,1,0.,24.0,0.,24.0,0.,24.0,0.,24.0
1979-08-02 05:33:18.740 ,3,0,0.,24.0,0.,24.0,0.,24.0,0.,24.0
1979-08-02 05:33:42.740 ,2,1,0.,24.0,0.,24.0,0.,24.0,0.,24.0
1979-08-02 05:34:06.740 ,0,0,0.,24.0,0.,24.0,0.,24.0,0.,24.0
1979-08-02 05:34:18.140 ,0,0,,0,,0,,0,,0
1979-08-02 05:34:30.740 ,1,1,1.,24.0,0.,24.0,0.,24.0,0.,24.0
1979-08-02 05:34:54.740 ,1,0,0.,24.0,0.,24.0,0.,24.0,0.,24.0
1979-08-02 05:35:18.740 ,0,1,0.,24.0,0.,24.0,0.,24.0,0.,24.0
1979-08-02 05:35:42.740 ,0,0,0.,24.0,0.,24.0,0.,24.0,0.,24.0
1979-08-02 05:36:06.740 ,0,1,0.,24.0,0.,24.0,0.,24.0,0.,24.0
1979-08-02 05:36:30.740 ,0,1,0.,24.0,0.,24.0,0.,24.0,0.,24.0
1979-08-02 05:36:54.740 ,1,1,0.,24.0,0.,24.0,0.,24.0,0.,24.0
1979-08-02 05:37:18.740 ,1,0,0.,24.0,0.,24.0,0.,24.0,0.,24.0
1979-08-02 05:37:42.740 ,2,1,0.,24.0,0.,24.0,0.,24.0,0.,24.0
1979-08-02 05:38:06.740 ,2,0,0.,24.0,0.,24.0,0.,24.0,0.,24.0
1979-08-02 05:38:30.740 ,3,1,0.,24.0,0.,24.0,0.,24.0,0.,24.0
1979-08-02 05:38:54.740 ,3,0,0.,24.0,0.,24.0,0.,24.0,0.,24.0
1979-08-02 05:39:18.740 ,4,1,1.,24.0,0.,24.0,0.,24.0,0.,24.0
1979-08-02 05:39:42.740 ,4,0,0.,24.0,0.,24.0,0.,24.0,0.,24.0
1979-08-02 05:40:06.740 ,5,0,,0,,0,,0,,0
1979-08-02 05:40:30.740 ,5,0,0.,24.0,0.,24.0,0.,24.0,0.,24.0
1979-08-02 05:40:54.740 ,0,0,0.,24.0,0.,24.0,0.,24.0,0.,24.0
1979-08-02 05:41:18.740 ,0,0,0.,24.0,0.,24.0,0.,24.0,0.,24.0
1979-08-02 05:41:42.740 ,0,0,0.,24.0,0.,24.0,0.,24.0,0.,24.0
1979-08-02 05:42:06.740 ,0,0,0.,24.0,0.,24.0,0.,24.0,0.,24.0
1979-08-02 05:42:30.740 ,0,0,0.,24.0,0.,24.0,0.,24.0,0.,24.0
1979-08-02 05:42:54.740 ,0,0,0.,24.0,0.,24.0,0.,24.0,0.,24.0
1979-08-02 05:43:18.730 ,0,0,0.,24.0,0.,24.0,0.,24.0,0.,24.0
1979-08-02 05:43:42.730 ,0,0,0.,24.0,0.,24.0,0.,24.0,0.,24.0
1979-08-02 05:44:06.730 ,0,0,0.,24.0,0.,24.0,0.,24.0,0.,24.0
1979-08-02 05:44:30.730 ,0,0,0.,24.0,0.,24.0,0.,24.0,0.,24.0
1979-08-02 05:44:54.730 ,0,0,0.,24.0,0.,24.0,0.,24.0,0.,24.0
1979-08-02 05:45:18.730 ,0,0,,0,,0,,0,,0
1979-08-02 05:45:42.730 ,3,1,0.,24.0,0.,24.0,0.,24.0,0.,24.0
1979-08-02 05:46:06.730 ,0,0,0.,24.0,0.,24.0,0.,24.0,0.,24.0
1979-08-02 05:46:31.330 ,0,0,1.,24.0,0.,24.0,0.,24.0,0.,24.0
1979-08-02 05:46:54.730 ,0,0,0.,24.0,0.,24.0,0.,24.0,0.,24.0
1979-08-02 05:47:18.730 ,1,1,0.,24.0,0.,24.0,0.,24.0,0.,24.0
1979-08-02 05:47:42.730 ,0,0,0.,24.0,0.,24.0,0.,24.0,0.,24.0
1979-08-02 05:48:07.330 ,0,1,0.,24.0,0.,24.0,0.,24.0,0.,24.0
1979-08-02 05:48:30.730 ,0,0,0.,24.0,0.,24.0,0.,24.0,0.,24.0
1979-08-02 05:48:54.730 ,0,1,0.,24.0,0.,24.0,0.,24.0,0.,24.0
1979-08-02 05:49:18.730 ,0,1,0.,24.0,0.,24.0,0.,24.0,0.,24.0
1979-08-02 05:49:42.730 ,1,1,0.,24.0,0.,24.0,0.,24.0,0.,24.0
1979-08-02 05:50:06.730 ,0,0,0.,24.0,0.,24.0,0.,24.0,0.,24.0
1979-08-02 05:50:30.730 ,0,0,0.,24.0,0.,24.0,0.,24.0,0.,24.0
1979-08-02 05:50:54.730 ,0,1,0.,24.0,0.,24.0,0.,24.0,0.,24.0
1979-08-02 05:51:18.730 ,3,1,0.,24.0,0.,24.0,0.,24.0,0.,24.0
1979-08-02 05:51:42.730 ,3,0,0.,24.0,0.,24.0,0.,24.0,0.,24.0
1979-08-02 05:52:06.730 ,4,1,0.,24.0,0.,24.0,0.,24.0,0.,24.0
1979-08-02 05:52:30.730 ,4,0,0.,24.0,0.,24.0,0.,24.0,0.,24.0
1979-08-02 05:52:54.730 ,5,1,0.,24.0,0.,24.0,0.,24.0,0.,24.0
1979-08-02 05:53:18.730 ,5,0,0.,24.0,0.,24.0,0.,24.0,0.,24.0
1979-08-02 05:53:42.730 ,6,1,0.,24.0,0.,24.0,0.,24.0,0.,24.0
1979-08-02 05:54:06.730 ,6,0,0.,24.0,0.,24.0,0.,24.0,0.,24.0
1979-08-02 05:54:30.730 ,7,0,0.,24.0,0.,24.0,0.,24.0,0.,24.0
1979-08-02 05:54:54.730 ,7,0,0.,24.0,0.,24.0,0.,24.0,1.,24.0
1979-08-02 05:55:18.730 ,5,1,0.,24.0,0.,24.0,0.,24.0,0.,24.0
1979-08-02 05:55:42.730 ,1,1,0.,24.0,0.,24.0,0.,24.0,0.,24.0
1979-08-02 05:56:06.730 ,2,1,0.,24.0,0.,24.0,0.,24.0,0.,24.0
1979-08-02 05:56:30.730 ,6,1,0.,24.0,0.,24.0,0.,24.0,0.,24.0
1979-08-02 05:56:54.730 ,5,1,1.,24.0,0.,24.0,0.,24.0,0.,24.0
1979-08-02 05:57:18.730 ,1,1,0.,24.0,0.,24.0,0.,24.0,0.,24.0
1979-08-02 05:57:42.730 ,2,1,1.,24.0,0.,24.0,0.,24.0,0.,24.0
1979-08-02 05:58:06.730 ,6,1,0.,24.0,0.,24.0,0.,24.0,0.,24.0
1979-08-02 05:58:30.730 ,5,1,0.,24.0,0.,24.0,0.,24.0,0.,24.0
1979-08-02 05:58:54.730 ,1,1,0.,24.0,0.,24.0,0.,24.0,0.,24.0
1979-08-02 05:59:18.730 ,2,1,0.,24.0,0.,24.0,0.,24.0,0.,24.0
1979-08-02 05:59:42.730 ,6,1,0.,24.0,0.,24.0,0.,24.0,0.,24.0
1979-08-02 06:00:06.730 ,5,1,0.,24.0,0.,24.0,0.,24.0,0.,24.0
